Regional Weather Roundup
Issued by NWS Sioux Falls, SD

Home | Current Version | Previous Version | Graphics & Text | Print | Product List | Glossary On
Versions: 1 2 3 4 5 6 7 8 9 10 11 12 13 14 15 16 17 18 19 20 21 22 23 24 25 26 27 28 29 30 31 32 33 34 35 36 37 38 39 40 41 42 43 44 45 46 47 48 49 50
000
ASUS43 KFSD 260602
RWRFSD

WEATHER ROUNDUP FOR SE SOUTH DAKOTA/SW MINNESOTA/NW IOWA
NATIONAL WEATHER SERVICE SIOUX FALLS SD
100 AM CDT MON SEP 26 2016

NOTE: "FAIR" INDICATES FEW OR NO CLOUDS BELOW 12,000 FEET WITH NO
SIGNIFICANT WEATHER AND OR OBSTRUCTIONS TO VISIBILITY.


SDZ038>040-050-052>070-260700-
SOUTHEAST SOUTH DAKOTA

CITY           SKY/WX    TMP DP  RH WIND       PRES   REMARKS
CHAMBERLAIN    CLEAR     48  35  59 NW5       30.23F
6HR MIN TEMP:  48; 6HR MAX TEMP:  65;

HURON          CLEAR     47  33  58 W9        30.17S
6HR MIN TEMP:  45; 6HR MAX TEMP:  63;

MADISON        FAIR      48  36  61 W9        30.16F
MITCHELL       CLEAR     48  33  56 W8        30.20S
6HR MIN TEMP:  48; 6HR MAX TEMP:  65;

SIOUX FALLS    CLEAR     48  38  68 W6        30.16S
6HR MIN TEMP:  48; 6HR MAX TEMP:  62;

WINNER         FAIR      49  34  56 W8        30.26F
YANKTON        CLEAR     52  34  50 W10       30.20S
$$

MNZ071-072-080-081-089-090-097-098-260700-
SOUTHWEST MINNESOTA

CITY           SKY/WX    TMP DP  RH WIND       PRES   REMARKS
FAIRMONT       CLEAR     52  41  66 W10       30.08F
JACKSON        CLEAR     52  36  54 W13       30.10F
LUVERNE        CLEAR     46  36  66 W9        30.15F
MARSHALL       CLEAR     54  37  52 W17       30.08S
6HR MIN TEMP:  53; 6HR MAX TEMP:  60;

MONTEVIDEO     CLEAR     54  39  58 NW12G18   30.05F
PIPESTONE      CLEAR     48  37  66 W7        30.13F
REDWOOD FALLS  CLEAR     54  38  54 W17G24    30.04S
TRACY          CLEAR     53  40  61 W7        30.09S
WINDOM         CLEAR     52  39  62 W10G16    30.09S
WORTHINGTON    CLEAR     48  39  71 W10       30.13F
$$

IAZ001>003-012>014-020>022-031-032-NEZ013-014-SDZ071-260700-
NORTHWEST IOWA

CITY           SKY/WX    TMP DP  RH WIND       PRES   REMARKS
CHEROKEE       CLEAR     49  40  70 W6        30.16F
DENISON        CLEAR     46  43  87 CALM      30.17S
ESTHERVILLE    CLEAR     52  41  66 W9        30.10F
LE MARS        CLEAR     48  39  71 NW5       30.19S
ORANGE CITY    CLEAR     45  41  87 NW5       30.17S
SHELDON        CLEAR     48  41  76 W7        30.14
SIOUX CITY     CLEAR     50  40  68 NW5       30.20S
6HR MIN TEMP:  49; 6HR MAX TEMP:  66;

SPENCER        CLEAR     49  41  74 W12       30.13F
6HR MIN TEMP:  49; 6HR MAX TEMP:  61;

STORM LAKE     CLEAR     48  41  76 W9        30.16S
$$

ABBREVIATIONS USED IN REMARKS
   TC - TEMPERATURE IN CELSIUS
  WCI - WIND CHILL INDEX
   HX - HEAT INDEX
  VSB - VISIBILITY





USA.gov is the U.S. government's official web portal to all federal, state and local government web resources and services.